Regional Weather Roundup
Issued by NWS

Home | Current Version | Previous Version | Text Only | Print | Product List | Glossary On
Versions: 1 2 3 4 5 6 7 8 9 10 11 12 13 14 15 16 17 18 19 20 21 22 23 24 25 26 27 28 29 30 31 32 33 34 35 36 37 38 39 40 41 42 43 44 45 46 47 48 49 50
000
ASUS45 KPSR 301310
RWRAZ

ARIZONA REGIONAL HOURLY WEATHER ROUNDUP
NATIONAL WEATHER SERVICE PHOENIX AZ
600 AM MST THU OCT 30 2014

NOTE: FAIR INDICATES FEW OR NO CLOUDS BELOW 12,000 FEET WITH NO
SIGNIFICANT WEATHER AND/OR OBSTRUCTIONS TO VISIBILITY.

AZZ001>003-036-301400-
NORTHWEST ARIZONA

CITY           SKY/WX    TMP DP  RH WIND       PRES   REMARKS
BULLHEAD CITY  CLEAR     61  32  33 CALM      30.01S
KINGMAN        CLEAR     46  29  51 E5        30.13S
$$

AZZ004>008-015-016-018-301400-
NORTH CENTRAL ARIZONA

CITY           SKY/WX    TMP DP  RH WIND       PRES   REMARKS
GRAND CANYON   PTCLDY    27  16  63 CALM      30.34R
PRESCOTT       PTCLDY    42  30  62 S7        30.24R
FLAGSTAFF      MOCLDY    27  21  78 CALM      30.35S
PAYSON         CLEAR     59  25  27 NE5       30.25R
PAGE           PTCLDY    46  22  38 CALM      30.26S
$$

AZZ009>014-017-301400-
NORTHEAST ARIZONA

CITY           SKY/WX    TMP DP  RH WIND       PRES   REMARKS
WINSLOW        CLOUDY    32  24  72 CALM      30.30R
SAINT JOHNS    CLOUDY    35  25  66 CALM      30.30R
WINDOW ROCK    MOCLDY    25  11  55 CALM      30.37R
SHOW LOW       PTCLDY    34  23  64 S3        30.34S
$$

AZZ023-301400-
GREATER PHOENIX AREA

CITY           SKY/WX    TMP DP  RH WIND       PRES   REMARKS
PHOENIX        CLEAR     66  45  46 E5        29.99R
BUCKEYE          N/A     57  37  47 CALM      29.99S
GLENDALE       CLEAR     63  45  51 CALM      30.01
LUKE AFB       CLEAR     61  41  46 NE5       29.99R
DEER VALLEY    CLEAR     66  39  37 NE13      30.00R
SCOTTSDALE     CLEAR     62  46  55 CALM      30.02R
MESA-GATEWAY   PTCLDY    57  39  51 NE6       30.03R
CHANDLER       CLEAR     61  45  55 CALM      30.01
$$

AZZ027-028-301400-
SOUTHWEST MARICOPA COUNTY AND PINAL COUNTY

CITY           SKY/WX    TMP DP  RH WIND       PRES   REMARKS
CASA GRANDE    CLEAR     57  41  54 CALM      30.02R
$$

AZZ503-504-507>509-301400-
SOUTHEAST ARIZONA

CITY           SKY/WX    TMP DP  RH WIND       PRES   REMARKS
TUCSON         CLEAR     58  40  51 SE6       30.09R
DAVIS-MONTHAN  CLEAR     58  40  50 SE8       30.07R
RYAN FIELD       N/A     55  45  67 E7        30.08
NOGALES        CLEAR     49  38  65 CALM      30.13S
SIERRA VISTA   CLEAR     52  37  58 S3        30.19R
DOUGLAS        CLEAR     43  38  82 CALM      30.17R
SAFFORD        CLEAR     48  38  68 CALM      30.13R
$$

AZZ020-021-025-026-031-301400-
SOUTHWEST ARIZONA

CITY           SKY/WX    TMP DP  RH WIND       PRES   REMARKS
YUMA           PTCLDY    67  36  31 NE3       29.93S
$$

CAZ031-033-041-043-047-048-061-301400-
SOUTHERN CALIFORNIA

CITY           SKY/WX    TMP DP  RH WIND       PRES   REMARKS
DOWNTOWN L.A.  PTCLDY    61  56  83 CALM      29.97S
L.A. AIRPORT   MOCLDY    63  62  98 N3        29.98R
SAN DIEGO      MOCLDY    63  59  88 N3        29.99R FOG
BURBANK        MOCLDY    60  44  55 NW5       29.98S
ONTARIO        MOCLDY    60  51  72 CALM      29.99S
RIVERSIDE      PTCLDY    58  50  75 NE5       30.00R
PALM SPRINGS   CLEAR     65  30  27 MISG      29.98R
EL CENTRO NAS  MOCLDY    60  30  32 W8        29.93R
IMPERIAL       MOCLDY    59  33  37 W7        29.93R
BLYTHE         CLEAR     61  28  28 CALM      29.97R
NEEDLES        CLEAR     61  20  20 NW3       30.00R
$$

NVZ020-UTZ003-301400-
SOUTHERN NEVADA-UTAH

CITY           SKY/WX    TMP DP  RH WIND       PRES   REMARKS
LAS VEGAS      CLEAR     58  21  24 S8        30.05R
SALT LAKE CITY PTCLDY    40  30  67 SE6       30.27S
$$

NMZ009-TXZ055-301400-
NEW MEXICO-WEST TEXAS

CITY           SKY/WX    TMP DP  RH WIND       PRES   REMARKS
ALBUQUERQUE    CLEAR     46  13  26 N8        30.31R
EL PASO        CLEAR     52  41  66 N8        30.19R
$$


........................KEY........................
SKY/WX - SKY CONDITION/WEATHER
TMP    - TEMPERATURE IN FAHRENHEIT
DP     - DEW POINT IN FAHRENHEIT
RH     - RELATIVE HUMIDITY IN PERCENT
WIND   - DIRECTION AND SPEED IN MILES PER HOUR (MPH)
VRB    - VARIABLE WIND DIRECTION
PRES   - MEAN SEA LEVEL PRESSURE IN INCHES OF MERCURY
         F - FALLING PRESSURE   R - RISING PRESSURE
         S - STEADY PRESSURE
VSB    - VISIBILITY IN MILES
HX     - HEAT INDEX IN FAHRENHEIT
WCI    - WIND CHILL INDEX IN FAHRENHEIT
TC     - TEMPERATURE IN CELSIUS WHICH IS ALSO KNOWN AS
         TEMPERATURE IN CENTIGRADE
AFB    - AIR FORCE BASE
         LUKE AFB IS LUKE AIR FORCE BASE
         DAVIS-MONTHAN IS DAVIS-MONTHAN AIR FORCE BASE
NAS    - NAVAL AIR STATION
         EL CENTRO NAS IS EL CENTRO NAVAL AIR STATION
N/A    - NOT AVAILABLE



USA.gov is the U.S. government's official web portal to all federal, state and local government web resources and services.